Ionia, MI

9:38 AM EDT on July 26, 2017 (GMT -0400)
Ionia

Weather History for KY70 - February, 2013

Change the Weather History Date:

Thursday, February 21, 2013

  Actual Average (KGRR) Record (KGRR)
Temperature  
Mean Temperature 23 °F -  
Max Temperature 26 °F 35 °F 66 °F (1930)
Min Temperature 20 °F 20 °F -8 °F (1968)
Degree Days  
Heating Degree Days 42    
Moisture  
Dew Point 16 °F    
Average Humidity 71    
Maximum Humidity 85    
Minimum Humidity 61    
Precipitation  
Precipitation 0.00 in - - ()
Sea Level Pressure  
Sea Level Pressure 30.29 in    
Wind  
Wind Speed 9 mph (NE)    
Max Wind Speed 20 mph    
Max Gust Speed 26 mph    
Visibility 10 miles    
Events Snow    
Averages and records for this station are not official NWS values.
T = Trace of Precipitation, MM = Missing Value Source: NWS Daily Summary

Daily Weather History Graph

Daily Weather History Graph

Search for Another Location

Airport or City:

Trip Planner

Search our weather history database for the weather conditions in past years. The results will help you decide how hot, cold, wet, or windy it might be!

Date:

Astronomy

Feb. 21, 2013 Rise Set
Actual Time 7:28 AM EST 6:19 PM EST
Civil Twilight 6:59 AM EST 6:48 PM EST
Nautical Twilight 6:26 AM EST 7:21 PM EST
Astronomical Twilight 5:53 AM EST 7:54 PM EST
Moon 2:30 PM EST (2/21) 4:36 AM EST (2/21)
Length of Visible Light 11h 48m
Length of Day
10h 51m
Waxing Gibbous, 83% of the Moon is Illuminated
Feb 21
Waxing Gibbous
Feb 25
Full
Mar 4
Last Quarter
Mar 11
New
Mar 19
First Quarter

Hourly Weather History & Observations

Time (EST) Temp. Windchill Dew Point Humidity Pressure Visibility Wind Dir Wind Speed Gust Speed Precip Events Conditions
12:13 AM 25.2 °F 18.3 °F 14.9 °F 65% 30.24 in 10.0 mi NNW 5.8 mph - N/A Snow Light Snow
12:34 AM 25.2 °F 15.1 °F 14.9 °F 65% 30.25 in 10.0 mi NNW 10.4 mph - N/A Snow Light Snow
12:53 AM 25.2 °F 16.5 °F 15.3 °F 66% 30.25 in 10.0 mi NNW 8.1 mph - N/A Snow Light Snow
1:14 AM 25.2 °F 15.7 °F 15.3 °F 66% 30.25 in 10.0 mi NW 9.2 mph - N/A Snow Light Snow
1:33 AM 25.3 °F 15.3 °F 14.9 °F 65% 30.26 in 10.0 mi NW 10.4 mph - N/A Snow Light Snow
1:54 AM 25.2 °F 17.3 °F 15.8 °F 68% 30.27 in 10.0 mi NW 6.9 mph - N/A Snow Light Snow
2:13 AM 25.3 °F 18.5 °F 15.6 °F 67% 30.27 in 10.0 mi NW 5.8 mph 9.2 mph N/A Snow Light Snow
2:34 AM 25.5 °F 19.9 °F 15.8 °F 67% 30.27 in 10.0 mi NW 4.6 mph - N/A Snow Light Snow
2:53 AM 25.5 °F 18.7 °F 15.8 °F 67% 30.27 in 7.0 mi WNW 5.8 mph - N/A   Overcast
3:14 AM 25.7 °F 18.0 °F 16.0 °F 67% 30.27 in 10.0 mi WNW 6.9 mph - N/A   Overcast
3:33 AM 25.5 °F 16.9 °F 15.8 °F 67% 30.27 in 10.0 mi WNW 8.1 mph - N/A   Overcast
3:53 AM 25.5 °F 17.8 °F 16.3 °F 68% 30.26 in 10.0 mi WNW 6.9 mph - N/A   Overcast
4:13 AM 25.5 °F 16.9 °F 16.2 °F 68% 30.26 in 10.0 mi NW 8.1 mph - N/A   Overcast
4:33 AM 25.7 °F 18.0 °F 16.2 °F 67% 30.27 in 10.0 mi WNW 6.9 mph - N/A   Overcast
4:53 AM 25.7 °F 17.1 °F 16.3 °F 68% 30.27 in 10.0 mi WNW 8.1 mph - N/A   Overcast
5:13 AM 25.7 °F 15.7 °F 16.5 °F 68% 30.28 in 10.0 mi WNW 10.4 mph - N/A   Overcast
5:33 AM 25.7 °F 16.4 °F 16.2 °F 67% 30.28 in 10.0 mi NW 9.2 mph - N/A   Overcast
5:53 AM 25.7 °F 17.1 °F 16.2 °F 67% 30.28 in 10.0 mi NNW 8.1 mph - N/A   Overcast
6:14 AM 25.7 °F 17.1 °F 16.3 °F 68% 30.29 in 10.0 mi NW 8.1 mph - N/A   Overcast
6:54 AM 25.7 °F 17.1 °F 16.3 °F 68% 30.30 in 10.0 mi NNW 8.1 mph - N/A   Overcast
7:13 AM 25.7 °F 15.7 °F 16.3 °F 68% 30.32 in 10.0 mi NNW 10.4 mph 16.1 mph N/A   Overcast
7:34 AM 26.1 °F 16.8 °F 16.2 °F 66% 30.32 in 10.0 mi North 9.2 mph - N/A   Overcast
7:53 AM 26.1 °F 16.8 °F 16.5 °F 67% 30.31 in 10.0 mi North 9.2 mph 16.1 mph N/A   Overcast
8:13 AM 26.1 °F 17.6 °F 16.9 °F 68% 30.31 in 10.0 mi North 8.1 mph - N/A   Overcast
8:33 AM 25.7 °F 14.0 °F 16.7 °F 69% 30.30 in 10.0 mi North 13.8 mph - N/A   Overcast
8:53 AM 25.9 °F 16.6 °F 16.9 °F 69% 30.30 in 10.0 mi NNE 9.2 mph - N/A   Overcast
9:13 AM 26.2 °F 17.1 °F 16.5 °F 67% 30.32 in 7.0 mi NNE 9.2 mph - N/A   Overcast
9:33 AM 26.4 °F 16.6 °F 16.5 °F 66% 30.32 in 10.0 mi NE 10.4 mph - N/A   Overcast
9:53 AM 26.6 °F 17.5 °F 16.9 °F 67% 30.32 in 10.0 mi NNE 9.2 mph - N/A   Overcast
10:13 AM 26.4 °F 16.6 °F 16.2 °F 65% 30.33 in 10.0 mi NE 10.4 mph - N/A   Overcast
10:33 AM 26.1 °F 16.8 °F 16.2 °F 66% 30.33 in 10.0 mi East 9.2 mph - N/A   Overcast
10:53 AM 25.5 °F 16.2 °F 15.6 °F 66% 30.35 in 10.0 mi ENE 9.2 mph - N/A   Overcast
11:13 AM 25.9 °F 16.0 °F 15.8 °F 66% 30.34 in 10.0 mi ENE 10.4 mph - N/A   Overcast
11:33 AM 25.5 °F 16.2 °F 15.4 °F 66% 30.34 in 10.0 mi NE 9.2 mph - N/A   Overcast
11:53 AM 25.2 °F 16.5 °F 14.2 °F 63% 30.35 in 10.0 mi ENE 8.1 mph - N/A   Overcast
12:13 PM 25.0 °F 18.1 °F 13.6 °F 62% 30.35 in 10.0 mi NE 5.8 mph - N/A   Overcast
12:33 PM 25.3 °F 16.0 °F 13.6 °F 61% 30.34 in 10.0 mi ENE 9.2 mph - N/A   Overcast
12:54 PM 21.9 °F 17.2 °F 11.5 °F 64% 30.35 in 10.0 mi NE 3.5 mph - N/A   Overcast
1:13 PM 22.6 °F - 15.1 °F 73% 30.35 in 10.0 mi Calm Calm - N/A   Overcast
1:34 PM 22.6 °F 14.3 °F 14.7 °F 72% 30.34 in 10.0 mi NNE 6.9 mph - N/A   Overcast
1:53 PM 23.4 °F - 15.8 °F 73% 30.32 in 10.0 mi Calm Calm - N/A   Overcast
2:13 PM 24.3 °F 17.3 °F 16.5 °F 72% 30.32 in 10.0 mi East 5.8 mph - N/A   Overcast
2:33 PM 25.7 °F 18.0 °F 17.4 °F 71% 30.30 in 10.0 mi East 6.9 mph - N/A   Overcast
2:53 PM 24.8 °F 16.9 °F 17.1 °F 72% 30.29 in 10.0 mi East 6.9 mph - N/A   Overcast
3:13 PM 24.6 °F 15.1 °F 16.7 °F 72% 30.28 in 10.0 mi East 9.2 mph - N/A   Mostly Cloudy
3:33 PM 25.7 °F 15.1 °F 17.6 °F 71% 30.27 in 10.0 mi East 11.5 mph - N/A   Mostly Cloudy
3:53 PM 24.3 °F 12.2 °F 17.1 °F 74% 30.27 in 10.0 mi East 13.8 mph 18.4 mph N/A   Overcast
4:14 PM 23.7 °F 12.6 °F 16.7 °F 75% 30.27 in 10.0 mi East 11.5 mph 19.6 mph N/A   Overcast
4:33 PM 23.2 °F 13.3 °F 16.0 °F 74% 30.30 in 10.0 mi East 9.2 mph 17.3 mph N/A   Overcast
4:53 PM 23.0 °F 15.8 °F 16.2 °F 75% 30.32 in 10.0 mi ENE 5.8 mph - N/A   Overcast
5:13 PM 22.8 °F 12.2 °F 15.8 °F 74% 30.32 in 10.0 mi East 10.4 mph - N/A   Overcast
5:33 PM 22.5 °F 11.1 °F 15.8 °F 76% 30.31 in 10.0 mi ENE 11.5 mph - N/A   Mostly Cloudy
5:53 PM 22.1 °F 9.5 °F 15.4 °F 76% 30.30 in 10.0 mi East 13.8 mph - N/A   Mostly Cloudy
6:13 PM 21.9 °F 10.4 °F 15.4 °F 76% 30.29 in 10.0 mi East 11.5 mph 18.4 mph N/A   Scattered Clouds
6:34 PM 21.7 °F 10.2 °F 14.5 °F 74% 30.31 in 10.0 mi East 11.5 mph 16.1 mph N/A   Clear
6:53 PM 21.2 °F 10.1 °F 14.0 °F 74% 30.30 in 10.0 mi East 10.4 mph - N/A   Clear
7:14 PM 21.2 °F 10.9 °F 14.7 °F 76% 30.29 in 10.0 mi East 9.2 mph - N/A   Clear
7:33 PM 21.2 °F 9.5 °F 14.9 °F 77% 30.28 in 10.0 mi ENE 11.5 mph - N/A   Clear
7:54 PM 21.0 °F 10.6 °F 14.9 °F 77% 30.28 in 10.0 mi East 9.2 mph - N/A   Clear
8:13 PM 20.7 °F 8.8 °F 14.9 °F 78% 30.27 in 10.0 mi ENE 11.5 mph - N/A   Clear
8:34 PM 20.7 °F 9.5 °F 15.1 °F 79% 30.26 in 10.0 mi East 10.4 mph - N/A   Clear
8:53 PM 20.3 °F 7.2 °F 15.6 °F 82% 30.25 in 10.0 mi ENE 13.8 mph 17.3 mph N/A   Clear
9:14 PM 20.3 °F 7.7 °F 16.3 °F 85% 30.26 in 10.0 mi East 12.7 mph 18.4 mph N/A   Clear
9:33 PM 20.3 °F 6.6 °F 16.3 °F 85% 30.25 in 10.0 mi ENE 15.0 mph 19.6 mph N/A   Clear
9:54 PM 20.1 °F 6.9 °F 16.3 °F 85% 30.25 in 10.0 mi East 13.8 mph 18.4 mph N/A   Clear
10:13 PM 20.3 °F 8.3 °F 16.5 °F 85% 30.24 in 10.0 mi East 11.5 mph 17.3 mph N/A   Clear
10:33 PM 20.7 °F 7.6 °F 16.5 °F 84% 30.24 in 10.0 mi East 13.8 mph 19.6 mph N/A   Clear
10:53 PM 21.0 °F 6.6 °F 15.8 °F 80% 30.24 in 10.0 mi East 17.3 mph 23.0 mph N/A   Clear
11:13 PM 20.8 °F 7.3 °F 15.8 °F 81% 30.23 in 10.0 mi East 15.0 mph 24.2 mph N/A   Scattered Clouds
11:33 PM 20.5 °F 5.0 °F 15.8 °F 82% 30.21 in 10.0 mi East 19.6 mph 26.5 mph N/A   Mostly Cloudy
11:54 PM 20.5 °F 5.9 °F 16.2 °F 83% 30.19 in 10.0 mi East 17.3 mph 24.2 mph N/A   Mostly Cloudy